User: anonymous
Location: Bush Observatory
(40.2653°N, 94.3194°W)
Time: 19:15:15
(UTC-05:00)
Language:

Iridium 15 - Orbit

View from above orbital plane
View from above orbital plane
View from above satellite
View from above satellite

Ground track
Ground track

The orbit data is extracted from the following two-line orbital elements,

1 24869U 97034A   14204.33431828  .00000220  00000-0  71561-4 0  9937
2 24869 086.3973 104.8638 0002221 099.1397 039.3738 14.34215521892002
Epoch (UTC): 23 July 2014 08:01:25
Eccentricity: 0.0002221
inclination: 86.3973°
perigee height: 776 km
apogee height: 779 km
right ascension of ascending node: 104.8638°
argument of perigee: 99.1397°
revolutions per day: 14.34215521
mean anomaly at epoch: 39.3738°
orbit number at epoch: 89200

The dashed part of the orbit path shows where the satellite is in the earth's shadow,  

DLR